Temp
5 4 3 3 2 2 2 3 3 4 5 4 2 1 0 -0 -1 -2 -2 -3 -3 -3 -4 -4 -4 -3 -3 -2 -2 -1 -1 -1 -0 0 1 1 1 1
4 4 3 3 2 2 2 2 2 2 3 3 2 0 -1 -1 -2 -3 -3 -4 -4 -4 -4 -5 -4 -4 -4 -3 -3 -3 -2 -2 -1 -1 -0 0 0 1
4 4 3 2 2 2 1 1 1 1 2 2 1 -1 -1 -2 -2 -3 -4 -4 -4 -4 -5 -5 -5 -5 -4 -4 -4 -4 -3 -3 -2 -2 -1 -1 -0 0
4 3 2 2 2 1 1 1 1 1 0 1 1 -1 -2 -2 -3 -4 -4 -4 -4 -4 -5 -5 -5 -5 -5 -4 -4 -4 -4 -3 -3 -3 -2 -2 -1 -1
3 3 2 2 2 2 1 1 1 0 -0 -1 -0 -1 -2 -3 -3 -3 -4 -4 -4 -5 -5 -5 -5 -5 -5 -5 -5 -4 -4 -4 -4 -3 -3 -3 -3 -2
3 2 2 2 2 2 1 1 0 -0 -0 -1 -1 -1 -2 -2 -4 -4 -3 -4 -4 -4 -5 -5 -5 -5 -5 -5 -5 -4 -4 -4 -4 -4 -4 -3 -3 -3
3 3 2 2 2 1 0 0 -0 -1 -1 -1 -1 -1 -2 -2 -3 -4 -4 -4 -4 -4 -4 -4 -4 -4 -4 -4 -4 -4 -4 -5 -4 -4 -4 -3 -3 -3
3 2 2 2 2 1 0 -0 -1 -1 -1 -1 -1 -2 -2 -3 -4 -4 -5 -4 -3 -4 -4 -4 -4 -4 -4 -3 -4 -4 -5 -5 -4 -4 -4 -3 -3 -3
2 2 2 2 1 -0 -1 -1 -1 -2 -2 -2 -3 -3 -3 -4 -4 -5 -5 -5 -4 -5 -5 -5 -4 -4 -4 -4 -4 -4 -3 -3 -3 -4 -3 -3 -2 -2
2 2 1 1 0 -0 -1 -2 -2 -2 -3 -4 -4 -4 -4 -5 -5 -5 -6 -6 -5 -5 -5 -5 -4 -4 -4 -4 -4 -3 -3 -3 -3 -3 -3 -3 -3 -3
2 2 1 0 0 0 -2 -3 -2 -2 -4 -4 -4 -5 -5 -6 -6 -6 -5 -5 -5 -5 -5 -5 -4 -5 -5 -4 -3 -3 -4 -4 -3 -3 -3 -3 -3 -3
1 1 1 1 0 0 -2 -3 -3 -3 -3 -4 -5 -5 -5 -6 -6 -6 -6 -6 -5 -5 -4 -6 -6 -5 -5 -4 -4 -4 -4 -4 -4 -4 -4 -3 -3 -3
0 0 -0 1 1 -0 -1 -3 -3 -3 -4 -4 -4 -4 -5 -5 -5 -5 -6 -6 -6 -6 -5 -7 -6 -6 -5 -5 -5 -4 -4 -3 -3 -3 -3 -3 -4 -4
-1 -0 -1 0 0 -0 -1 -2 -2 -3 -5 -5 -5 -5 -5 -5 -5 -5 -6 -6 -7 -7 -7 -7 -7 -7 -7 -6 -5 -4 -4 -4 -3 -3 -3 -3 -3 -3
-2 -2 -1 -0 -0 -1 -1 -2 -3 -4 -5 -5 -5 -4 -5 -5 -5 -6 -7 -7 -7 -7 -7 -7 -7 -7 -6 -6 -5 -4 -4 -3 -3 -4 -4 -4 -3 -3
-3 -3 -3 -3 -3 -3 -3 -3 -3 -4 -4 -5 -4 -4 -5 -6 -6 -6 -6 -7 -7 -7 -7 -8 -8 -7 -7 -6 -5 -5 -4 -4 -4 -4 -4 -4 -3 -3
-4 -4 -3 -3 -3 -4 -4 -4 -4 -4 -5 -5 -5 -5 -6 -6 -6 -6 -7 -7 -7 -6 -6 -7 -7 -7 -7 -7 -6 -5 -4 -4 -4 -4 -4 -4 -3 -4
-4 -3 -3 -3 -3 -3 -4 -4 -4 -5 -5 -5 -5 -6 -6 -6 -6 -6 -7 -7 -7 -7 -7 -7 -7 -7 -5 -5 -6 -5 -4 -5 -4 -4 -4 -4 -2 -3
-4 -3 -3 -3 -3 -4 -4 -4 -4 -4 -5 -5 -6 -6 -6 -6 -6 -6 -6 -7 -7 -7 -7 -7 -7 -7 -5 -4 -5 -6 -6 -5 -5 -4 -4 -4 -4 -3
-4 -3 -3 -3 -3 -4 -4 -4 -4 -5 -6 -6 -6 -6 -6 -6 -6 -6 -6 -7 -7 -7 -7 -7 -7 -7 -6 -5 -6 -6 -7 -6 -6 -5 -5 -5 -4 -4
-10 -10 -7 -4 -4 -4 -4 -4 -5 -5 -5 -6 -6 -6 -6 -6 -6 -6 -6 -8 -8 -8 -7 -6 -7 -8 -8 -7 -6 -5 -6 -6 -7 -7 -6 -4 -3 -3
-12 -12 -11 -10 -8 -4 -4 -4 -5 -5 -6 -6 -6 -6 -6 -7 -6 -6 -7 -7 -7 -7 -7 -8 -8 -7 -7 -6 -5 -5 -5 -6 -6 -6 -7 -7 -6 -3
-14 -14 -13 -12 -11 -9 -7 -5 -5 -5 -6 -6 -6 -6 -7 -7 -7 -7 -7 -8 -8 -8 -8 -8 -8 -8 -7 -7 -7 -6 -6 -6 -6 -5 -6 -6 -6 -6
Height
858 859 860 861 861 860 859 859 858 853 849 850 851 850 848 847 845 842 838 834 829 826 822 819 817 815 813 811 809 808 806 804 802 800 799 798 796 794
855 856 856 856 856 857 856 856 855 853 847 847 846 846 845 844 841 838 834 829 825 821 818 814 812 810 808 806 804 802 800 798 796 794 792 791 790 788
851 851 851 852 853 852 852 851 851 850 846 841 842 842 841 839 837 834 830 825 821 817 813 809 807 804 802 800 797 795 793 791 789 788 786 785 783 782
846 846 847 848 848 847 847 846 845 844 843 838 838 837 837 834 831 828 825 821 816 812 807 804 801 798 796 793 791 788 786 784 782 781 780 778 777 775
842 842 842 842 842 842 841 840 839 838 837 835 832 832 831 829 826 823 820 816 812 807 802 798 795 792 790 787 784 781 778 776 774 773 772 771 771 770
835 835 836 836 836 836 835 834 833 832 831 830 827 826 825 823 822 818 815 811 807 802 798 795 790 786 783 780 776 773 771 769 766 765 764 763 763 762
829 829 829 829 829 829 829 828 828 827 826 824 822 820 819 818 816 815 811 807 803 798 793 791 785 781 777 773 770 767 764 761 759 758 756 755 755 754
823 823 822 822 822 821 821 821 822 821 819 818 816 814 814 813 812 811 808 804 798 793 789 785 781 775 771 767 764 760 757 754 751 750 748 747 746 745
817 816 815 814 815 814 814 813 813 812 812 813 811 810 809 809 808 806 804 801 797 791 787 780 776 770 767 762 758 754 751 748 745 743 741 740 739 737
809 808 808 807 807 807 807 806 806 805 805 805 804 804 803 803 803 802 800 797 793 788 784 777 772 766 761 757 752 749 747 744 741 738 736 733 731 729
802 801 800 799 798 799 799 798 798 798 797 797 797 797 796 796 797 797 795 792 787 783 779 775 768 762 756 751 748 746 742 738 734 731 728 725 723 721
794 792 791 790 790 791 790 790 790 790 791 791 791 791 790 791 791 791 790 788 785 779 775 774 768 763 753 747 746 743 739 734 729 724 720 717 715 713
786 783 781 780 780 781 781 781 781 783 784 784 785 785 785 785 785 785 784 783 781 777 773 771 766 763 759 748 743 740 736 730 724 720 715 711 708 706
777 774 771 770 771 771 772 771 773 774 776 777 778 778 778 778 778 778 778 777 775 772 769 768 763 760 755 750 741 735 732 726 722 716 712 707 702 699
770 766 763 761 761 762 762 763 764 765 767 768 769 770 771 772 772 772 772 771 769 766 764 762 759 755 752 747 741 735 729 723 719 714 709 704 700 696
762 757 755 753 753 753 753 753 755 755 756 759 760 762 764 765 766 766 766 766 765 761 759 757 753 750 746 742 737 732 728 723 718 713 707 702 698 695
756 751 747 745 743 742 744 747 748 748 749 751 753 755 757 758 759 760 761 761 760 757 755 752 749 744 740 737 733 729 725 722 717 712 707 702 698 694
747 743 739 737 735 734 737 740 741 742 741 743 745 747 749 751 753 754 756 756 755 753 751 748 745 740 735 731 729 727 724 721 716 711 707 703 697 694
738 733 730 728 728 728 730 732 733 733 734 735 738 740 742 744 747 749 750 751 750 749 747 745 742 739 734 729 728 726 724 720 716 711 707 703 699 695
733 726 722 720 721 723 725 726 726 727 728 729 731 733 736 738 741 743 745 746 746 745 743 741 739 737 735 732 729 725 722 720 717 712 707 703 699 696
737 729 724 722 720 720 720 719 720 720 722 723 724 726 729 732 735 737 739 741 742 742 740 738 736 734 732 730 727 722 720 719 717 714 709 703 699 696
742 736 730 725 720 717 715 714 714 715 716 717 718 720 723 726 729 732 734 736 738 738 737 736 734 731 730 727 724 722 719 718 716 714 711 708 705 700
744 738 732 727 723 717 713 711 710 710 710 710 712 714 717 720 724 727 729 732 734 734 734 733 731 730 728 726 724 722 720 718 716 714 712 709 707 705
Wind_Speed
8 6 5 5 9 11 11 11 11 8 9 14 12 9 11 14 18 18 20 22 26 25 24 23 23 23 23 24 25 25 26 27 28 27 28 29 30 30
9 7 7 9 10 11 12 13 13 15 11 18 15 14 13 15 16 18 20 23 22 23 22 22 22 22 24 25 26 27 28 29 29 28 29 29 28 27
11 12 12 11 12 12 13 14 14 14 18 21 15 15 14 16 17 18 19 19 19 19 21 22 24 24 26 25 25 25 26 28 29 29 28 29 30 28
15 14 14 13 15 15 15 16 15 16 18 20 18 17 16 16 17 18 18 18 18 20 21 22 23 22 21 20 21 23 25 25 25 27 28 28 28 27
16 16 16 15 16 16 17 17 16 17 16 18 21 17 16 16 17 18 18 18 17 19 22 20 18 18 20 23 23 23 24 24 25 25 27 28 27 27
20 19 18 17 17 17 17 18 18 17 16 17 19 19 17 16 16 17 18 17 19 20 17 15 19 21 23 23 21 20 21 22 23 24 25 26 27 27
19 20 20 20 20 20 17 18 17 17 18 19 19 18 17 16 17 17 18 19 20 17 15 16 23 22 19 18 17 17 20 22 23 24 24 24 25 26
18 18 21 21 22 23 22 21 20 21 22 19 19 18 18 17 16 15 16 17 16 15 21 24 21 21 18 17 19 23 23 23 23 23 23 25 26 26
20 20 19 21 23 21 21 22 22 25 23 20 20 19 18 16 14 15 15 17 20 23 24 24 22 19 17 19 22 21 15 16 18 19 16 19 21 22
22 22 21 21 20 20 19 18 18 18 18 19 19 19 17 15 14 15 17 20 21 20 18 20 16 20 21 22 19 12 15 22 20 20 24 25 25 27
23 25 24 23 24 23 21 20 19 19 18 22 23 20 20 16 14 16 17 17 19 20 18 11 17 23 23 19 11 13 22 23 19 20 23 26 25 30
24 24 29 30 28 24 25 22 21 21 17 14 15 16 15 15 16 16 17 17 17 14 6 14 18 18 10 12 13 19 22 24 25 23 22 24 24 22
25 25 23 29 29 24 25 25 26 21 17 16 15 14 13 14 15 14 14 15 17 18 19 16 16 19 14 23 20 22 21 26 22 22 20 20 22 21
28 27 26 30 27 26 24 28 28 25 18 16 16 16 15 15 15 15 14 14 16 19 19 18 18 18 19 20 23 21 25 23 21 18 19 20 19 17
26 31 34 34 31 27 27 25 26 24 19 18 19 18 16 15 14 13 12 14 16 17 15 14 16 18 18 20 22 22 23 21 17 18 19 19 15 15
27 28 29 32 28 23 23 24 27 25 24 22 20 18 15 12 13 13 12 13 14 15 11 12 13 14 18 19 20 21 18 14 20 17 20 16 13 13
33 30 26 21 20 19 21 20 17 21 22 21 18 18 17 13 14 12 11 12 13 14 13 12 12 14 17 19 17 14 12 16 16 16 16 15 12 14
28 25 23 22 22 16 15 17 16 20 19 19 18 17 17 14 14 13 11 12 13 13 12 11 12 13 10 5 9 10 10 13 16 15 14 13 11 14
23 22 23 21 19 16 15 16 18 17 18 17 17 16 15 14 14 13 12 11 12 11 10 9 9 8 6 6 7 7 9 12 14 14 13 12 11 12
23 22 22 19 14 12 13 14 15 14 16 16 16 15 14 15 14 13 12 11 10 10 9 7 7 7 8 6 8 10 8 8 11 14 15 13 9 8
28 30 25 13 9 11 14 15 17 16 16 15 16 16 15 15 15 13 11 10 9 9 9 8 8 11 10 9 7 7 4 5 5 9 14 12 9 8
25 24 25 25 22 15 13 14 13 14 15 15 16 15 16 16 16 14 12 10 9 9 8 8 8 7 5 5 7 7 7 4 3 6 10 11 7 5
24 24 23 22 21 21 18 13 13 14 14 15 16 16 16 16 16 14 12 10 9 8 7 6 6 5 5 5 6 6 6 5 5 3 5 9 9 8
Wind_Direction
243 248 252 264 256 252 248 256 271 291 296 311 291 283 279 284 296 305 303 303 305 302 300 300 298 296 294 292 289 286 283 282 281 282 278 278 276 276
239 245 257 260 260 254 252 255 254 270 288 299 291 285 285 290 295 300 299 301 298 298 297 295 292 291 291 288 286 283 281 279 279 278 277 276 276 274
244 249 251 259 255 253 251 245 250 260 280 291 289 287 280 288 296 299 299 298 297 295 295 292 289 290 289 288 284 282 281 278 275 275 275 275 275 275
248 244 250 254 252 255 247 245 254 271 271 281 289 288 284 294 297 301 301 297 296 296 294 293 292 288 288 287 286 285 283 281 279 271 270 274 278 279
248 245 250 252 254 253 248 252 264 277 261 266 282 288 287 297 300 303 301 300 300 298 298 297 293 288 289 289 289 286 282 280 278 274 270 271 272 271
252 251 252 249 253 257 254 254 271 270 263 265 276 284 288 295 298 304 306 307 306 305 300 301 297 293 292 291 287 285 285 284 283 280 276 273 271 269
254 255 258 256 258 256 254 264 267 267 266 267 273 280 284 296 301 304 300 309 310 305 300 308 302 301 295 291 289 291 291 290 287 283 278 277 277 275
254 257 260 259 258 262 262 266 265 264 268 264 271 276 282 294 296 295 300 309 311 310 307 307 304 301 297 294 292 302 299 293 286 281 277 276 278 277
259 260 255 256 260 260 259 259 262 265 254 255 262 267 281 289 289 289 293 298 300 304 305 303 308 300 300 299 300 304 314 320 311 288 281 293 290 283
265 261 254 254 253 255 250 252 260 250 248 250 251 264 274 279 273 282 291 294 297 300 300 298 308 309 308 303 306 315 327 320 305 298 290 293 291 286
268 265 257 255 254 261 247 251 254 254 258 257 254 262 273 270 266 282 285 295 300 305 304 288 309 314 312 302 299 307 319 325 318 310 291 287 284 289
274 266 264 258 258 265 249 245 248 253 252 248 250 261 262 258 260 263 277 284 297 311 301 315 313 325 316 307 310 314 318 317 315 310 303 292 288 288
272 269 261 265 255 263 255 243 246 256 247 246 252 255 256 258 263 266 266 272 284 280 290 307 300 305 295 304 305 310 314 317 317 313 309 309 298 285
275 272 268 269 262 257 256 250 255 257 237 238 245 249 255 259 265 265 265 270 277 277 288 290 282 290 294 295 301 310 316 319 317 310 310 310 313 307
287 277 277 275 271 260 254 251 249 241 227 228 237 244 250 262 263 259 262 275 283 283 281 280 277 282 283 285 291 299 310 318 320 320 319 316 310 320
299 294 290 273 261 255 252 251 245 229 223 227 237 244 247 250 250 253 258 281 287 291 286 283 284 282 281 279 283 293 301 312 318 320 326 321 315 318
299 292 278 262 247 237 246 243 236 229 222 230 231 236 238 244 246 246 251 274 277 289 297 303 302 294 282 272 276 281 299 315 323 321 331 330 326 342
301 286 271 261 242 227 230 243 239 235 228 231 229 234 233 236 243 239 243 263 274 286 293 305 316 326 324 284 249 284 314 320 327 327 325 329 333 351
289 280 277 253 237 231 231 239 245 242 234 223 226 229 227 236 229 231 240 257 268 280 288 300 314 320 324 323 300 289 314 325 329 330 332 331 321 336
313 282 273 247 233 235 244 249 260 246 231 224 221 222 222 222 218 224 234 248 262 276 286 294 302 303 303 309 316 300 305 316 337 335 335 329 315 337
351 351 351 320 284 273 262 264 255 241 236 225 221 216 216 213 217 222 231 236 249 267 278 292 304 301 291 288 255 290 292 321 339 348 345 340 337 354
347 347 341 341 343 309 285 270 253 246 237 230 223 214 214 212 216 215 219 231 239 254 272 292 308 310 292 292 311 313 329 310 332 19 31 34 8 355
341 340 339 338 337 334 338 285 270 254 240 232 219 213 208 207 212 215 215 218 232 246 262 290 307 309 293 294 310 326 329 334 329 335 14 30 40 44